Showing default

COSMOS 2426 (GLONASS), 29671

Orbit data source: Space-Track

COSMOS 2426 (GLONASS), 29671 is a Commonwealth of Independent States-origin payload satellite in MEO that was launched on Mon, 25 Dec 2006 UTC via a PROTON-K/DM-2 launch vehicle from the Tyuratam Missile And Space Complex (TTMTR). Payload-class satellites include a variety of spacecraft equipped with specific instruments for various scientific and technological missions. These include communications satellites like Starlink; space stations such as the ISS; scientific satellites like the Hubble; Earth observation satellites from companies like Planet Labs, Umbra, and HawkEye 360; GPS; miniature CubeSats for education and research; and military/defense satellites.

Loading next visibility...
Identifier
29671, 2006-062B
Orbit
MEO
Country
Flag of CISCIS
Related business
Manufacturer
Resehetnev ISS
Mission
Non-operational Defense Navigation
Bus & Motor
URAGAN, Unknown motor
Mass
1,450 kg wet, ~1,200 kg dry
Launch date (UTC)
2006-12-25 (19 years ago)
Launch vehicle
PROTON-K/DM-2
Launch site
Tyuratam Missile And Space Complex (TTMTR)
Object type
Payload
Rocket body
Debris
Shape & HBR
Cyl + 1 Arm + 2 Pan, 3.9 m
Radar Cross Section
8.145 m², Large (>1 m²)

Expand to show TLE details & history
Last TLE update: 2 weeks ago

TLE from 2 weeks ago
0 COSMOS 2426 (GLONASS)
1 29671U 06062B   25277.44851186  .00000006  00000-0  00000-0 0  9995
2 29671  64.6983 203.0332 0021584 181.1149   3.0869  2.12963403146109
Epoch: 2025-10-04T10:45Z
TLE epoch observation values (Epoch: 2025-10-04T10:45:51.424Z)
Latitude
-3.86427°
Longitude
-149.99158°
Altitude
19,087.114 km
Speed
3.961 km/s
True Right ascension
01h 39m 24s
True Declination
-3° 51' 28"
Sunlit
Object was in daylight at epoch
Visualization orbit readout
Latitude
Unknown
Longitude
Unknown
Altitude
Unknown
Speed
Unknown
Apparent Right ascension
Unknown
Apparent Declination
Unknown
Sunlit
N/A
Visualization observer readout
Local Sidereal Time
18:58:50
Azimuth
Unknown
Elevation
Unknown
Doppler factor
Unknown
Orbital elements
Apogee altitude
19,195.659 km
Perigee altitude
19,085.499 km
Semi-major axis
25,518.716 km
Eccentricity
0.00216
Inclination
64.6983°
RAAN
203.0332°
Arg. of periapsis
181.1149°
True anomaly
3.10026°
Mean anomaly
3.0869°
Eccentric anomaly
3.09357°
Mean motion
0.53242 °/min
Orbital period
676.16 mins
BSTAR
0
Loading maneuver chart data...
Computing Atmospheric mass density...
Loading historical data...
Loading historical data...
Loading historical data...
Loading historical data...
Loading historical data...
Loading historical data...
Loading historical data...

Documentation

Showing up to 5 results
|